When you browse on this site, cookies collect data to enhance your experience and personalize the content and advertising you see.
Visit our Privacy Policy to learn more. By continuing to use the site, you agree to this use of cookies and data.
  • în România
  • Lista ţărilor
  • Pe 7 zile
  • Temperatura apei
  • Hartă satelitară
  • Meteo pe hartă
  • Widget-uri
  • user-avatar
    Intrare

    Meteo pe oră la Kingston

    Astăzi, 16 Februarie, Sâmbătă

    Timp Temperatura Precipitaţii Vânt Presiune Umiditate
    00:00 +21°C° 0.1 mm 1 m/s 706 mmHg 92%
    01:00 +21°C° 0 mm 1 m/s 705 mmHg 92%
    02:00 +21°C° 0 mm 1 m/s 705 mmHg 92%
    03:00 +21°C° 0 mm 1 m/s 705 mmHg 92%
    04:00 +21°C° 0 mm 1 m/s 705 mmHg 93%
    05:00 +21°C° 0 mm 1 m/s 705 mmHg 92%
    06:00 +21°C° 0 mm 1 m/s 706 mmHg 92%
    07:00 +21°C° 0 mm 1 m/s 706 mmHg 92%
    08:00 +23°C° 0 mm 1 m/s 706 mmHg 84%
    09:00 +24°C° 0 mm 2 m/s 707 mmHg 76%
    10:00 +26°C° 0 mm 2 m/s 707 mmHg 68%
    11:00 +27°C° 0.1 mm 2 m/s 707 mmHg 65%
    12:00 +28°C° 0.1 mm 3 m/s 707 mmHg 61%
    13:00 +28°C° 0.1 mm 3 m/s 707 mmHg 58%
    14:00 +28°C° 0.1 mm 3 m/s 706 mmHg 59%
    15:00 +28°C° 0.1 mm 3 m/s 706 mmHg 61%
    16:00 +27°C° 0.1 mm 3 m/s 706 mmHg 62%
    17:00 +26°C° 0.1 mm 2 m/s 706 mmHg 70%
    18:00 +24°C° 0.1 mm 2 m/s 706 mmHg 79%
    19:00 +23°C° 0.1 mm 1 m/s 706 mmHg 87%
    20:00 +22°C° 0.1 mm 1 m/s 706 mmHg 88%
    21:00 +22°C° 0.1 mm 1 m/s 706 mmHg 90%
    22:00 +22°C° 0.1 mm 1 m/s 706 mmHg 91%
    23:00 +22°C° 0.1 mm 1 m/s 706 mmHg 92%

    Mâine, 17 Februarie, Duminică

    Timp Temperatura Precipitaţii Vânt Presiune Umiditate
    00:00 +22°C° 0.1 mm 1 m/s 706 mmHg 92%
    01:00 +22°C° 0.1 mm 1 m/s 706 mmHg 92%
    02:00 +22°C° 0.1 mm 1 m/s 706 mmHg 92%
    03:00 +22°C° 0.1 mm 1 m/s 706 mmHg 92%
    04:00 +22°C° 0.1 mm 1 m/s 706 mmHg 92%
    05:00 +22°C° 0 mm 1 m/s 706 mmHg 91%
    06:00 +21°C° 0 mm 2 m/s 706 mmHg 91%
    07:00 +21°C° 0 mm 2 m/s 707 mmHg 90%
    08:00 +24°C° 0 mm 2 m/s 707 mmHg 82%
    09:00 +25°C° 0 mm 3 m/s 708 mmHg 75%
    10:00 +27°C° 0 mm 3 m/s 709 mmHg 67%
    11:00 +27°C° 0 mm 3 m/s 709 mmHg 64%
    12:00 +28°C° 0 mm 4 m/s 708 mmHg 61%
    13:00 +28°C° 0 mm 4 m/s 708 mmHg 59%
    14:00 +28°C° 0 mm 4 m/s 708 mmHg 60%
    15:00 +28°C° 0 mm 3 m/s 707 mmHg 61%
    16:00 +28°C° 0 mm 3 m/s 707 mmHg 62%
    17:00 +26°C° 0 mm 3 m/s 707 mmHg 70%
    18:00 +25°C° 0 mm 2 m/s 707 mmHg 77%
    19:00 +23°C° 0 mm 2 m/s 707 mmHg 85%
    20:00 +23°C° 0 mm 2 m/s 708 mmHg 87%
    21:00 +21°C° 0 mm 2 m/s 708 mmHg 89%
    22:00 +22°C° 0 mm 1 m/s 708 mmHg 90%
    23:00 +22°C° 0 mm 1 m/s 708 mmHg 91%

    Poimâine, 18 Februarie, Luni

    Timp Temperatura Precipitaţii Vânt Presiune Umiditate
    00:00 +22°C° 0 mm 1 m/s 708 mmHg 91%
    01:00 +22°C° 0 mm 1 m/s 708 mmHg 91%
    02:00 +22°C° 0 mm 1 m/s 707 mmHg 92%
    03:00 +22°C° 0 mm 1 m/s 707 mmHg 92%
    04:00 +21°C° 0 mm 1 m/s 707 mmHg 92%
    05:00 +22°C° 0 mm 1 m/s 707 mmHg 92%
    06:00 +22°C° 0 mm 1 m/s 708 mmHg 92%
    07:00 +22°C° 0 mm 1 m/s 708 mmHg 91%
    08:00 +23°C° 0 mm 2 m/s 709 mmHg 83%
    09:00 +25°C° 0 mm 2 m/s 709 mmHg 74%
    10:00 +27°C° 0 mm 2 m/s 710 mmHg 65%
    11:00 +27°C° 0.1 mm 3 m/s 710 mmHg 65%
    12:00 +27°C° 0.1 mm 3 m/s 709 mmHg 66%
    13:00 +27°C° 0.1 mm 3 m/s 709 mmHg 66%
    14:00 +27°C° 0.2 mm 3 m/s 708 mmHg 67%
    15:00 +27°C° 0.2 mm 3 m/s 708 mmHg 67%
    16:00 +27°C° 0.2 mm 3 m/s 708 mmHg 67%
    17:00 +25°C° 0.1 mm 3 m/s 708 mmHg 73%
    18:00 +24°C° 0.1 mm 2 m/s 708 mmHg 78%
    19:00 +23°C° 0.1 mm 2 m/s 708 mmHg 84%
    20:00 +21°C° 0 mm 2 m/s 708 mmHg 85%
    21:00 +22°C° 0 mm 1 m/s 709 mmHg 87%
    22:00 +22°C° 0 mm 1 m/s 709 mmHg 89%
    23:00 +21°C° 0 mm 1 m/s 709 mmHg 89%

    19 Februarie, Marţi

    Timp Temperatura Precipitaţii Vânt Presiune Umiditate
    00:00 +21°C° 0 mm 1 m/s 708 mmHg 90%
    01:00 +21°C° 0 mm 1 m/s 708 mmHg 90%
    02:00 +21°C° 0.1 mm 1 m/s 708 mmHg 90%
    03:00 +21°C° 0.1 mm 1 m/s 707 mmHg 90%
    04:00 +21°C° 0.1 mm 1 m/s 707 mmHg 90%
    05:00 +21°C° 0.2 mm 1 m/s 707 mmHg 90%
    06:00 +21°C° 0.2 mm 1 m/s 707 mmHg 89%
    07:00 +22°C° 0.2 mm 1 m/s 708 mmHg 89%
    08:00 +23°C° 0.2 mm 2 m/s 708 mmHg 83%
    09:00 +24°C° 0.2 mm 2 m/s 709 mmHg 77%
    10:00 +26°C° 0.2 mm 3 m/s 710 mmHg 70%
    11:00 +26°C° 0.2 mm 3 m/s 709 mmHg 68%
    12:00 +26°C° 0.2 mm 3 m/s 709 mmHg 66%
    13:00 +27°C° 0.2 mm 4 m/s 708 mmHg 64%
    14:00 +26°C° 0.1 mm 4 m/s 708 mmHg 63%
    15:00 +26°C° 0.1 mm 3 m/s 707 mmHg 63%
    16:00 +26°C° 0.1 mm 3 m/s 707 mmHg 63%
    17:00 +25°C° 0 mm 3 m/s 707 mmHg 67%
    18:00 +23°C° 0 mm 2 m/s 707 mmHg 71%
    19:00 +21°C° 0 mm 2 m/s 707 mmHg 76%
    20:00 +20°C° 0 mm 2 m/s 707 mmHg 76%
    21:00 +20°C° 0 mm 2 m/s 707 mmHg 76%
    22:00 +19°C° 0 mm 2 m/s 708 mmHg 76%
    23:00 +19°C° 0 mm 2 m/s 707 mmHg 77%

    20 Februarie, Miercuri

    Timp Temperatura Precipitaţii Vânt Presiune Umiditate
    00:00 +19°C° 0 mm 2 m/s 707 mmHg 79%
    01:00 +19°C° 0 mm 2 m/s 706 mmHg 81%
    02:00 +20°C° 0.1 mm 2 m/s 706 mmHg 82%
    03:00 +20°C° 0.1 mm 2 m/s 706 mmHg 83%
    04:00 +20°C° 0.1 mm 2 m/s 706 mmHg 85%
    05:00 +20°C° 0 mm 2 m/s 706 mmHg 85%
    06:00 +20°C° 0 mm 2 m/s 706 mmHg 86%
    07:00 +20°C° 0 mm 2 m/s 707 mmHg 86%
    08:00 +21°C° 0.1 mm 2 m/s 707 mmHg 80%
    09:00 +24°C° 0.1 mm 3 m/s 708 mmHg 73%
    10:00 +25°C° 0.1 mm 3 m/s 708 mmHg 67%
    11:00 +25°C° 0.4 mm 4 m/s 708 mmHg 69%
    12:00 +25°C° 0.4 mm 4 m/s 707 mmHg 72%
    13:00 +25°C° 0.4 mm 4 m/s 707 mmHg 74%
    14:00 +25°C° 0.3 mm 4 m/s 706 mmHg 74%
    15:00 +23°C° 0.3 mm 4 m/s 706 mmHg 74%
    16:00 +23°C° 0.3 mm 4 m/s 706 mmHg 74%
    17:00 +24°C° 0.1 mm 3 m/s 706 mmHg 77%
    18:00 +22°C° 0.1 mm 3 m/s 706 mmHg 80%
    19:00 +21°C° 0.1 mm 2 m/s 706 mmHg 83%
    20:00 +20°C° 0 mm 2 m/s 706 mmHg 84%
    21:00 +20°C° 0 mm 2 m/s 707 mmHg 84%
    22:00 +20°C° 0 mm 2 m/s 707 mmHg 85%
    23:00 +20°C° 0 mm 2 m/s 707 mmHg 86%

    21 Februarie, Joi

    Timp Temperatura Precipitaţii Vânt Presiune Umiditate
    00:00 +20°C° 0 mm 2 m/s 706 mmHg 87%
    01:00 +20°C° 0 mm 2 m/s 706 mmHg 87%
    02:00 +20°C° 0 mm 2 m/s 706 mmHg 87%
    03:00 +19°C° 0 mm 2 m/s 706 mmHg 87%
    04:00 +19°C° 0 mm 2 m/s 706 mmHg 86%
    05:00 +19°C° 0 mm 2 m/s 706 mmHg 86%
    06:00 +19°C° 0 mm 2 m/s 706 mmHg 86%
    07:00 +19°C° 0 mm 2 m/s 707 mmHg 86%
    08:00 +20°C° 0.3 mm 2 m/s 707 mmHg 83%
    09:00 +21°C° 0.3 mm 3 m/s 708 mmHg 80%
    10:00 +24°C° 0.3 mm 3 m/s 708 mmHg 77%
    11:00 +25°C° 0.1 mm 4 m/s 708 mmHg 70%
    12:00 +26°C° 0.1 mm 4 m/s 708 mmHg 63%
    13:00 +28°C° 0.1 mm 4 m/s 708 mmHg 55%
    14:00 +27°C° 0.2 mm 4 m/s 707 mmHg 59%
    15:00 +27°C° 0.2 mm 4 m/s 707 mmHg 62%
    16:00 +26°C° 0.2 mm 4 m/s 706 mmHg 65%
    17:00 +25°C° 0.1 mm 3 m/s 706 mmHg 70%
    18:00 +22°C° 0.1 mm 3 m/s 706 mmHg 76%
    19:00 +21°C° 0.1 mm 2 m/s 706 mmHg 81%
    20:00 +21°C° 0 mm 2 m/s 707 mmHg 82%
    21:00 +20°C° 0 mm 2 m/s 707 mmHg 82%
    22:00 +20°C° 0 mm 2 m/s 707 mmHg 82%
    23:00 +20°C° 0 mm 2 m/s 707 mmHg 83%
    Arată mai mult